Home > Weather > May Pen > Past weeks

Flag for Jamaica Past Weather in May Pen, Jamaica — Yesterday and Last 2 Weeks

Now
86 °F

Scattered clouds.


Feels Like: 95 °F
Forecast: 75 / 90 °F
Wind: 7 mph from South

Location: Kingston / Norman Manley

Current Time: Aug 24, 2016 at 11:23:53 AM

Latest Report: Aug 24, 2016 at 11:00 AM


Visibility: N/A

Pressure: 29.92 "Hg

Humidity: 70%

Dew Point: 75 °F

Location of May PenLocation

Past Weather in May Pen — Graph

°F

May Pen Temperature Yesterday

Maximum temperature yesterday: 91 °F (at 1:00 PM)
Minimum temperature yesterday: 82 °F (at 3:00 AM)
Average temperature yesterday: 86 °F

High & Low Weather Summary for the Past Weeks

 TemperatureHumidityPressure
High93 °F (Aug 16, 12:00 PM)100% (Aug 12, 1:00 AM)30.01 "Hg (Aug 12, 1:00 AM)
Low72 °F (Aug 12, 1:00 AM)52% (Aug 16, 10:00 AM)29.83 "Hg (Aug 20, 3:00 PM)
Average86 °F70%29.93 "Hg
* Reported Aug 9 10:00 AM — Aug 24 10:00 AM, May Pen, Weather by CustomWeather, © 2016

Note: Actual official high and low records may vary slightly from our data, if they occured in-between our weather recording intervals... More about our weather records

Advertising

May Pen Weather History for the Previous 24 Hours

Scroll right to see more
 ConditionsComfort  
Time TempWeatherWind HumidityBarometerVisibility
10:00 AM
Wed, Aug 24
88 °FScattered clouds.7 mph70%29.92 "HgN/A
9:00 AM86 °FPartly sunny.2 mph75%29.92 "HgN/A
8:00 AM84 °FScattered clouds.3 mph74%29.92 "HgN/A
7:00 AM82 °FPassing clouds.1 mph84%29.92 "HgN/A
6:00 AM82 °FThunderstorms. Passing clouds.2 mph74%29.89 "HgN/A
5:00 AM82 °FPassing clouds.5 mph74%29.89 "HgN/A
4:00 AM82 °FThundershowers. Passing clouds.8 mph74%29.89 "HgN/A
3:00 AM84 °FThundershowers. Passing clouds.6 mph74%29.89 "HgN/A
2:00 AM84 °FPassing clouds.6 mph74%29.92 "HgN/A
1:00 AM84 °FPassing clouds.2 mph84%29.92 "HgN/A
12:00 AM84 °FPassing clouds.5 mph79%29.92 "HgN/A
11:00 PM
Tue, Aug 23
84 °FPassing clouds.5 mph79%29.92 "HgN/A
10:00 PM84 °FThundershowers. Passing clouds.5 mph74%29.92 "HgN/A
9:00 PM84 °FThundershowers. Passing clouds.7 mph79%29.92 "HgN/A
8:00 PM86 °FThundershowers. Passing clouds.8 mph75%29.92 "HgN/A
7:00 PM88 °FPassing clouds.10 mph66%29.92 "HgN/A
6:00 PM88 °FPassing clouds.10 mph70%29.89 "HgN/A
5:00 PM88 °FScattered clouds.12 mph70%29.92 "HgN/A
4:00 PM90 °FScattered clouds.12 mph67%29.89 "HgN/A
3:00 PM90 °FThunderstorms. Scattered clouds.16 mph71%29.89 "HgN/A
2:00 PM90 °FScattered clouds.16 mph71%29.89 "HgN/A
1:00 PM91 °FPassing clouds.12 mph67%29.92 "HgN/A
12:00 PM90 °FPassing clouds.9 mph67%29.95 "HgN/A
11:00 AM88 °FPassing clouds.9 mph66%29.98 "HgN/A
Weather by CustomWeather, © 2016

See weather overviewHow to use our weather pages